Find Starlink 30358

NORAD ID: 57879 Int'l Des: 2023-144 Owner: SPXS Country: US Constellation: starlink operational
LEOCIRCULAR

Live-Position

3D-Globus wird geladen...

Über Starlink 30358

Beschreibung wird geladen...

Nächste Überflüge

Passes for default location (London). Set your location on the main map for personalized predictions.

Höhenverlauf

Loading altitude history...

Zweizeiliger Elementsatz

1 57879U 23144R 26125.52812458 .00001152 00000-0 51390-4 0 9992
2 57879 43.0078 323.9084 0001366 270.2291 89.8404 15.27580653146330
Epoch: 5. Mai 2026 • Age: 21 hours

Aktueller Status

Höhe 487.1 km
Geschwindigkeit 7.63 km/s
Subsatellitenpunkt 43.11°N, 46.03°E
Startdatum 16. Sept. 2023
Alter 2.6 years
Typ internet

Technische Details

Klassifizierung Payload
Masse 730.00 kg
Trockenmasse 700.00 kg
Gesamtmasse 730.00 kg
Länge 0.30 m
Durchmesser 4.10 m
Spannweite 29.00 m
Form Box + pan
Hersteller SPXS
Bus-Typ Starlink V2M
Phasenstatus In Orbit
Besitzer/Staat SPXS/US

Most Searched